Weather Roundup
Issued by NWS

Home | Current Version | Previous Version | Graphics & Text | Print | Product List | Glossary Off
Versions: 1 2 3 4 5 6 7 8 9 10 11 12 13 14 15 16 17 18 19 20 21 22 23 24 25 26 27 28 29 30 31 32 33 34 35 36 37 38 39 40 41 42 43 44 45 46 47 48 49 50

005
NZUS93 KARX 061059
HRRWXR

CURRENT HOURLY OBSERVATIONS ACROSS
MUCH OF THE UPPER MISSISSIPPI VALLEY
NATIONAL WEATHER SERVICE LA CROSSE WI
500 AM CST TUE DEC 06 2016


...SOUTHEAST MINNESOTA...


CITY           SKY/WX    TMP DP  RH WIND       PRES   REMARKS
ROCHESTER      LGT SNOW  31  29  92 W12       29.74S FOG     WCI  22
ROCHESTER/MAYO CLOUDY    32  32 100 W8        29.74S WCI  25
WINONA         CLOUDY    34  32  93 S3        29.75F
AUSTIN         LGT SNOW  30  27  86 W10G16    29.76S WCI  21
ALBERT LEA     CLOUDY    32  27  80 W12G21    29.77S WCI  23
DODGE CENTER   CLOUDY    30  27  86 W15G22    29.73F WCI  19
PRESTON        LGT SNOW  32  31  95 SW7       29.75S WCI  26
OWATONNA       CLOUDY    30  25  80 SW16G23   29.75S WCI  19
FARIBAULT      CLOUDY    28  23  80 SW12G21   29.75S WCI  18
$$

...ELSEWHERE IN MINNESOTA...


CITY           SKY/WX    TMP DP  RH WIND       PRES   REMARKS
MINNEAPOLIS    CLOUDY    29  21  72 SW10      29.72S WCI  20
INTNL FALLS    CLOUDY    33  31  92 S8        29.43S WCI  26
DULUTH         CLOUDY    33  29  85 SW18G26   29.55F WCI  22
RED WING       LGT SNOW  32  28  86 W7        29.73R WCI  26
REDWOOD FALLS  CLOUDY    19  10  68 W21G28    29.77S WCI   3
MANKATO        CLOUDY    25  17  72 W16       29.77R WCI  12
WORTHINGTON    PTCLDY    15  10  80 W30       29.79F WCI  -5
FAIRMONT       CLOUDY    23  17  78 W24       29.80S WCI   7
$$

...SOUTHWEST WISCONSIN...


CITY           SKY/WX    TMP DP  RH WIND       PRES   REMARKS
LA CROSSE      CLOUDY    35  31  85 S15       29.77F WCI  25
PRAIRIE DU CHI CLOUDY    32  29  88 E3        29.80F
BOSCOBEL       CLOUDY    33  30  88 CALM      29.81F
LONE ROCK      NOT AVBL
PLATTEVILLE    CLOUDY    32  32 100 SE5       29.81F VSB 1/2 WCI  27
FORT MC COY    CLOUDY    32  30  92 S5        29.78F WCI  27
MAUSTON-NEW LI CLOUDY    32  28  86 S7        29.79F WCI  26
VIROQUA        CLOUDY    30  30 100 S9        29.78S WCI  22
WIS DELLS      CLOUDY    30  29  96 S10       29.81S FOG     WCI  21
$$

...ELSEWHERE IN WISCONSIN...


CITY           SKY/WX    TMP DP  RH WIND       PRES   REMARKS
MILWAUKEE      CLOUDY    39  33  79 S5        29.84F
MADISON        CLOUDY    31  31 100 S8        29.82F FOG     WCI  23
GREEN BAY      CLOUDY    38  35  89 SE9       29.82F WCI  31
EAU CLAIRE     LGT SNOW  33  32  96 S10       29.71F FOG     WCI  25
BLACK RVR FLS  CLOUDY    33  32  96 S5        29.76F WCI  29
MEDFORD        CLOUDY    30  28  93 S12       29.72F FOG     WCI  21
WAUSAU         CLOUDY    30  28  92 S14       29.75F WCI  19
WIS RAPIDS     CLOUDY    31  29  92 S8        29.79F WCI  23
MARSHFIELD     CLOUDY    31  28  89 S10       29.74F WCI  22
RICE LAKE      LGT SNOW  33  32  97 S8        29.69F WCI  26
$$

...NORTHEAST IOWA...


CITY           SKY/WX    TMP DP  RH WIND       PRES   REMARKS
WATERLOO       CLOUDY    33  31  92 W8        29.81R WCI  26
DUBUQUE        SNOW      31  31 100 SE5       29.79F VSB 1/2 WCI  26
DECORAH        MIX PCPN  32  32 100 S7        29.76F WCI  26
MASON CITY     CLOUDY    29  25  85 W22       29.81S WCI  15
CHARLES CITY   LGT SNOW  32  32 100 W14       29.80R WCI  22
OELWEIN        MIX PCPN  32  32 100 SW10      29.80R VSB 1/2 WCI  24
$$

...ELSEWHERE IN IOWA...


CITY           SKY/WX    TMP DP  RH WIND       PRES   REMARKS
DES MOINES     FLURRIES  32  23  69 NW17G24   29.86F WCI  21
IOWA CITY      CLOUDY    35  33  92 CALM      29.83S
FORT DODGE     CLOUDY    27  18  69 W14       29.85F WCI  15
MARSHALLTOWN   CLOUDY    32  30  92 NW16      29.82S WCI  21
CEDAR RAPIDS   DRIZZLE   33  33 100 S5        29.80S WCI  29
$$

...NORTHERN ILLINOIS...


CITY           SKY/WX    TMP DP  RH WIND       PRES   REMARKS
CHICAGO-OHARE  CLEAR     29  28  96 N6        29.80F FOG     WCI  23
CHICAGO-MIDWAY MOCLDY    32  29  88 E3        29.80F FOG
MOLINE         FOG       34  32  92 CALM      29.81S VSB 3/4
ROCKFORD       FOG       33  33 100 CALM      29.83F VSB 3/4
PEORIA         FOG       32  32 100 N3        29.81R VSB 1/4
$$

NOTE: "FAIR" INDICATES FEW OR NO CLOUDS BELOW 12,000 FEET WITH NO
SIGNIFICANT WEATHER AND/OR OBSTRUCTIONS TO VISIBILITY. WIND
SPEEDS ARE IN MILES-PER-HOUR.




USA.gov is the U.S. government's official web portal to all federal, state and local government web resources and services.